STARLINK-5123 (53979 NORAD) Tracking and Keplerian Element Data

This shows tracking and keplerian element data for the satellite.

Feedback or suggestion? Click here.




ElementValue
Catalog53979
NameSTARLINK-5123
Epoch Orbit762
Epoch Day325.25001157
Epoch Year2022
RAAN226.3701
Inclination53.2168
Eccentricity0.0001305
Argument of Perigee85.9446
Mean Anonmoly82.0785
Mean Motion15.24486272
Decay Rate-0.01170327
L11 53979U 22125R 22325.25001157 -.01170327 00000+0 -51020-1 0 9991
L22 53979 53.2168 226.3701 0001305 85.9446 82.0785 15.24486272 7622



Live tracking and technical data element details for STARLINK-5123 (NORAD 53979). STARLINK-5123 can be tracked NOW for your location showing map with azimuth and elevation plus other details from your city location.







IsCatalogInMostPopularTable: catalog: 53979, numindb: 2
Update: records affected: 1



GetName: 53979 STARLINK-5123

Hit Count: updated at: Mon, 28 Nov 2022 21:14:00 GMT